Location: Ambatotampy
(18.8181°S, 47.6186°E)
Time: 02:46:15
(UTC+00:00)

GPS 2-15 Rocket1 - Pass Details

Date: 21 January 2021
Orbit: 624 x 675 km, 19.8° (Epoch: 04 March)

Event Time Altitude Azimuth Distance (km) Brightness Sun altitude
Exits shadow 02:04:33 - 281° (W) 2,346 5.4 -6.1°
Reaches altitude 10° 02:05:26 10° 287° (WNW) 2,071 5.1 -5.9°
Maximum altitude 02:09:22 24° 340° (NNW) 1,358 4.5 -5.1°
Drops below altitude 10° 02:13:20 10° 34° (NE) 2,084 5.9 -4.2°
Sets 02:16:07 0° 48° (NE) 2,999 6.9 -3.6°
